Wind_Speed
23 25 28 29 28 27 26 25 25 26 22 17 17 18 20 22 22 21 20 19 17 19 22 23 24 23 22 22 21 20 22 23 21 21 20 18 17 17 17 16 16 16 15 16 17 16 16 16 17 19 21 22 25 28 31 33 33 34 35 34 33 32 34 39 42 42 38 35 33 32 31 29 29 28 29 30 31 33 33 32 33 33 33 34 35 37
23 26 28 25 22 22 22 22 23 25 24 19 15 13 15 18 17 15 16 17 16 19 20 20 23 25 24 24 22 22 25 25 24 22 21 20 19 18 18 17 16 15 15 15 16 15 16 16 17 18 19 22 24 25 28 32 34 36 36 36 36 35 33 34 37 42 44 43 39 37 35 32 31 29 29 30 30 32 34 34 34 36 36 36 37 37
23 26 23 19 21 22 22 24 24 24 24 22 17 14 13 15 15 14 15 15 15 18 19 19 24 26 24 25 26 27 28 27 24 23 21 20 21 20 19 18 18 16 13 12 12 14 16 17 18 18 18 20 23 26 28 29 32 35 37 38 36 36 36 36 36 36 39 42 44 45 43 40 37 34 32 31 31 31 32 32 32 35 35 33 37 40
23 23 20 20 22 22 22 23 24 23 23 22 19 16 15 15 15 14 14 14 15 17 18 19 24 28 27 28 30 28 28 27 23 23 24 23 21 19 18 17 15 13 10 9 10 13 16 17 19 20 20 21 22 25 27 29 30 32 35 38 39 38 36 37 38 39 38 37 39 43 47 48 47 45 41 37 35 32 32 31 30 33 32 28 31 36
21 19 18 20 20 18 16 18 20 20 19 19 18 17 16 14 14 14 13 12 13 15 18 17 21 29 31 30 30 28 29 29 26 24 21 17 15 13 13 13 12 11 10 10 12 14 17 19 20 21 22 22 23 24 25 28 30 32 33 35 37 39 39 38 37 39 41 40 38 37 39 43 47 49 49 48 44 39 37 35 34 34 32 30 30 29
17 15 17 20 21 19 15 15 16 16 16 17 18 17 15 13 13 14 12 12 11 13 17 15 13 17 18 17 17 18 21 20 18 16 14 12 11 11 12 12 13 12 11 12 14 16 18 20 21 22 23 22 22 22 24 26 28 30 32 33 34 36 39 40 40 39 39 41 41 40 37 35 37 40 43 46 48 48 47 45 44 43 40 39 38 34
18 16 16 19 21 19 16 15 14 14 15 16 16 15 13 12 13 13 13 13 11 10 13 14 10 9 11 11 9 10 14 16 17 15 13 12 11 11 10 9 10 9 9 11 13 14 16 19 21 23 23 23 22 23 23 25 27 29 30 32 34 35 36 38 41 42 42 41 41 42 42 39 36 34 34 36 40 43 46 47 48 48 48 48 47 44
19 16 14 16 18 18 18 17 14 14 14 14 15 14 13 14 14 13 14 15 14 13 13 14 14 13 17 19 15 15 17 16 16 13 9 8 8 8 9 10 11 12 13 13 13 14 15 18 21 24 25 25 25 26 27 27 28 29 31 32 34 35 36 37 39 42 44 45 45 45 45 43 42 40 37 35 35 35 37 40 42 44 46 48 50 51
16 16 13 13 14 15 16 14 12 15 15 15 17 16 16 16 13 13 14 16 17 14 14 18 17 10 13 16 12 10 12 11 11 9 7 7 9 12 15 16 17 18 18 19 18 19 20 21 23 25 28 29 29 29 29 30 30 30 31 32 33 35 36 37 38 40 42 45 47 48 49 48 47 46 44 41 39 36 35 35 36 38 40 41 44 47
14 15 13 13 14 14 14 13 16 18 17 17 17 16 16 13 12 14 14 17 15 9 16 25 21 11 11 15 14 11 11 10 7 5 6 9 12 15 17 18 20 20 20 22 23 25 25 26 27 27 29 30 30 29 29 29 30 31 31 31 32 33 35 36 37 38 40 42 44 46 48 49 49 49 49 47 45 43 40 38 37 37 37 38 38 39
17 17 17 18 18 17 17 18 20 20 18 17 15 13 12 11 14 15 14 15 8 7 24 30 24 17 9 8 11 11 8 4 4 6 8 11 15 18 18 19 20 21 22 24 27 28 29 30 30 30 30 29 28 28 28 28 29 30 30 30 31 31 32 34 35 37 38 39 40 42 43 45 46 47 49 49 49 48 46 45 43 41 40 40 40 38
22 23 23 24 22 20 19 19 19 18 18 18 16 15 13 10 12 11 9 9 4 8 23 26 25 24 14 8 7 7 7 7 8 12 13 17 22 22 20 19 20 21 23 25 26 28 30 30 31 30 29 28 27 28 28 28 28 28 29 30 31 31 30 31 33 34 35 36 37 39 40 41 42 43 45 46 47 48 48 48 47 47 46 45 44 42
23 24 22 21 20 19 18 17 18 18 20 22 20 19 13 4 3 5 4 4 5 12 15 13 16 17 19 27 21 14 20 23 22 22 21 23 26 26 24 22 22 23 24 25 26 28 28 29 30 29 28 27 26 26 27 28 28 28 28 28 29 30 30 30 30 31 32 33 34 35 37 38 40 42 42 43 43 44 45 46 47 48 49 48 47 46
17 20 22 22 20 19 21 22 22 20 22 26 27 25 17 5 2 4 4 1 5 14 16 11 9 8 14 22 22 23 29 28 28 28 26 28 29 29 28 26 26 27 25 25 26 27 28 28 29 29 28 27 27 26 26 26 26 27 27 28 28 29 30 30 30 30 30 31 32 34 34 36 37 39 41 41 42 41 41 42 44 46 47 48 48 48
12 14 17 20 19 19 23 25 24 22 23 26 29 29 25 19 10 5 5 4 3 7 10 12 8 6 11 12 10 16 19 20 23 23 25 30 31 30 29 27 28 28 26 26 27 27 28 28 28 28 28 27 27 27 26 24 24 24 25 26 27 28 30 31 31 31 31 30 31 32 33 34 36 37 38 39 40 41 41 41 42 42 43 44 46 46
13 13 14 16 17 17 20 23 25 23 19 21 26 28 28 29 22 9 5 7 4 1 4 12 7 5 12 12 8 8 9 13 16 17 21 26 30 32 31 29 28 28 28 28 28 28 29 29 29 29 29 28 27 26 25 24 25 25 27 28 29 30 30 31 32 32 32 32 32 32 32 33 35 36 36 37 38 39 41 41 42 42 42 42 42 43
9 10 10 14 18 19 19 21 25 24 18 16 23 28 28 29 24 13 6 5 4 1 5 12 7 7 14 10 10 12 10 11 14 15 19 22 25 29 30 30 29 29 30 30 30 31 31 31 31 31 30 29 27 27 28 31 33 34 35 35 35 34 34 35 35 34 33 33 33 34 34 34 34 35 36 36 37 37 38 40 41 42 42 41 41 40
11 11 11 13 16 18 18 18 22 25 22 17 19 22 22 21 20 15 6 2 3 3 7 13 14 17 18 10 14 21 17 14 16 16 18 21 24 26 27 28 29 28 29 30 31 31 31 31 31 31 31 31 31 33 35 37 37 37 37 36 35 35 35 36 38 37 36 34 34 34 35 35 35 35 36 36 36 37 37 38 39 40 41 41 41 40
14 14 14 16 17 16 16 17 18 21 25 23 19 17 15 12 12 15 9 1 4 4 4 10 17 20 21 16 17 24 22 19 20 19 19 21 22 24 25 26 26 27 27 28 29 30 30 31 31 31 33 34 36 38 39 38 36 35 34 33 34 34 33 33 34 37 38 37 36 35 35 35 36 36 36 36 36 37 37 37 38 38 39 40 40 40
14 10 9 13 17 16 15 16 16 18 22 24 22 19 17 12 9 13 13 5 4 5 4 7 8 10 20 24 21 23 24 20 20 21 23 23 23 23 24 25 26 26 26 26 27 28 30 31 32 33 33 34 36 37 38 38 36 35 33 33 33 34 34 32 30 31 33 35 36 36 36 35 36 36 37 37 37 37 37 37 37 38 38 38 39 39
14 11 10 11 13 15 14 14 16 17 18 19 20 18 16 16 13 11 15 13 6 3 2 6 5 4 15 23 23 24 24 21 20 21 23 25 25 24 24 26 26 26 26 26 26 27 29 31 32 32 32 33 33 34 35 36 37 36 35 34 34 34 35 34 32 30 29 30 32 33 34 34 35 36 37 37 37 37 37 37 37 38 38 38 38 37
12 11 14 15 13 13 13 14 15 15 16 16 17 16 13 15 12 6 10 16 14 7 3 5 4 3 12 19 21 23 24 23 24 22 21 24 25 25 24 23 24 25 25 25 25 26 27 28 29 30 30 30 31 31 31 33 35 37 37 36 35 35 36 35 35 33 31 29 29 30 31 32 33 35 36 37 37 37 37 37 37 37 37 37 37 36
16 14 17 21 19 17 15 15 14 13 14 15 15 14 12 12 12 8 5 8 10 10 8 6 4 4 11 16 18 21 22 23 24 23 20 20 23 25 24 21 21 21 22 23 23 24 25 25 26 26 27 28 28 29 29 29 31 34 37 38 37 38 38 37 38 37 36 33 31 31 31 31 32 34 35 36 37 37 37 37 37 37 37 37 37 36
17 17 19 21 21 20 20 20 19 17 17 16 16 16 15 14 14 12 9 6 5 8 8 5 4 8 15 18 19 20 22 21 22 22 19 17 19 22 22 21 19 18 19 20 21 22 23 23 24 25 26 27 27 28 28 28 29 30 32 35 37 39 39 39 39 38 38 38 36 34 33 33 34 35 35 36 37 37 36 37 37 37 36 37 37 36
11 12 12 12 11 11 13 14 16 18 18 16 15 16 17 18 15 13 13 10 6 11 13 7 3 7 17 22 23 22 23 23 22 22 20 17 17 18 20 22 22 21 20 21 21 22 22 23 23 24 25 26 27 27 27 28 28 28 28 30 33 35 37 39 40 40 40 41 40 38 35 34 35 36 37 37 36 36 35 35 36 36 36 36 36 36
13 13 10 8 5 4 5 4 4 7 10 10 10 11 12 15 14 12 13 10 4 10 17 12 3 4 17 22 20 20 23 25 24 24 24 22 21 21 22 24 26 26 26 26 25 25 25 25 24 24 24 25 25 27 27 27 27 27 27 27 28 30 32 35 37 38 40 42 42 41 38 36 36 37 37 37 36 36 35 34 35 35 36 36 36 37
17 19 19 17 14 13 13 11 9 10 12 13 13 13 12 13 15 14 13 12 11 14 20 21 14 11 16 18 17 20 24 27 28 29 29 30 31 31 31 31 32 33 33 33 32 31 30 30 29 28 28 27 26 26 27 27 28 27 27 26 26 27 28 30 31 33 34 36 39 40 39 37 37 38 38 36 35 35 34 34 34 34 35 35 36 37
18 19 21 21 22 23 22 20 18 18 19 21 21 23 23 20 21 21 20 23 21 15 20 28 27 22 23 25 27 29 31 35 37 37 38 39 40 41 41 39 39 39 40 40 40 39 38 37 36 35 35 33 31 30 28 28 28 29 28 28 27 27 27 27 29 30 31 32 34 35 36 36 37 38 38 36 35 33 33 33 33 34 34 34 35 37
17 20 21 21 23 24 24 22 20 18 18 18 19 22 25 24 24 25 27 30 27 20 23 32 35 33 35 37 39 40 40 42 45 46 46 46 46 46 45 43 42 43 44 45 45 45 45 45 44 43 42 40 39 37 35 33 31 30 30 30 29 28 28 27 27 28 29 31 33 33 34 36 37 37 37 37 35 33 32 32 32 33 34 34 34 35
16 19 19 19 20 21 20 20 18 16 15 17 19 21 23 25 27 29 30 30 29 28 30 34 38 40 41 42 44 44 44 45 46 47 47 47 46 45 44 43 43 43 44 47 48 48 48 49 50 49 48 47 46 44 43 41 38 37 35 34 33 31 30 28 28 28 28 29 32 34 35 36 36 36 36 36 35 34 32 32 32 33 34 34 33 34
15 17 14 12 15 17 17 17 15 15 16 19 21 22 23 26 29 32 34 33 32 34 34 34 36 38 39 40 41 40 39 40 40 42 44 46 47 45 45 45 44 44 44 45 47 49 49 49 50 51 52 51 50 49 48 47 46 44 42 41 39 37 35 33 31 30 29 29 30 33 35 37 37 37 37 36 35 35 34 33 32 33 34 34 33 33
15 16 14 12 14 18 19 17 16 18 19 22 25 27 28 30 31 32 34 34 34 35 34 33 33 33 33 34 36 35 35 37 38 40 42 44 46 47 47 45 44 43 42 43 44 46 48 49 50 51 52 53 53 52 51 50 49 48 47 46 44 43 42 40 37 34 32 30 31 32 34 36 38 39 40 40 39 38 36 35 34 34 34 34 33 33
20 21 21 17 16 19 20 17 16 16 14 17 25 28 28 27 28 29 30 29 29 30 31 31 33 33 33 33 34 34 34 35 36 37 37 38 40 42 44 44 44 43 42 41 41 42 44 46 48 49 51 52 54 54 53 52 50 49 48 47 46 45 45 45 44 41 37 34 32 33 34 35 36 39 41 43 43 42 40 37 35 34 34 33 34 34
22 22 23 19 16 16 15 12 12 10 9 14 22 24 22 21 22 24 25 25 26 28 30 32 33 33 32 32 31 31 30 30 31 33 35 36 38 40 42 44 45 45 45 44 43 42 42 43 44 46 48 51 53 55 55 54 52 50 49 47 46 45 44 44 44 43 42 38 34 34 35 35 35 37 39 41 42 42 40 38 36 34 33 34 35 35
23 22 21 19 17 16 13 9 7 7 11 17 19 17 15 15 15 18 20 22 23 24 26 28 29 30 31 31 30 30 30 30 31 32 33 34 36 39 42 44 45 47 47 47 47 46 45 44 44 43 44 46 49 52 55 56 55 53 51 49 47 45 44 44 43 42 42 42 39 36 36 35 34 36 38 40 42 42 40 38 36 34 33 33 35 37
19 20 18 17 16 14 9 7 7 6 8 10 10 9 11 13 16 19 20 20 20 22 23 24 26 28 29 30 31 31 32 32 32 32 32 32 34 36 38 40 41 43 44 45 45 46 46 46 46 45 44 43 44 46 50 53 56 55 54 52 50 48 45 44 44 43 41 42 41 39 38 35 33 35 37 40 42 43 40 37 35 34 33 34 35 36
12 14 15 15 14 11 8 10 14 14 12 12 13 13 15 19 20 20 21 21 21 21 23 24 25 26 27 28 30 30 31 31 31 31 31 32 33 34 34 36 37 38 38 39 40 41 42 43 43 44 44 43 42 42 44 46 50 52 53 53 52 52 49 46 45 44 41 41 41 40 38 36 32 33 35 38 41 42 38 36 35 34 34 33 33 35
8 9 11 12 11 11 10 9 8 8 10 12 13 12 13 14 15 16 18 21 21 21 23 24 24 25 25 25 26 26 27 28 29 28 29 30 32 33 33 34 35 37 38 38 39 39 38 39 40 40 40 40 40 40 40 41 42 44 46 47 47 48 49 46 44 44 43 41 40 38 37 34 31 31 34 36 39 39 36 34 35 34 34 33 33 34
8 7 9 11 11 11 10 5 3 5 9 10 10 10 10 12 15 15 16 21 23 22 21 22 21 22 22 22 23 24 25 28 29 29 30 31 31 32 33 33 34 35 37 39 40 40 38 38 37 37 38 38 38 37 38 38 39 39 40 41 41 42 43 43 42 42 43 42 40 37 35 33 31 31 33 35 36 36 34 33 34 34 33 33 33 34
7 7 9 13 15 15 14 10 9 12 14 13 13 14 15 16 16 10 6 13 18 18 17 18 20 21 23 23 25 27 29 31 32 32 32 32 32 32 33 34 34 34 35 37 39 40 39 38 36 35 36 37 37 37 37 37 38 38 37 37 38 38 40 40 39 39 41 42 40 36 34 33 32 33 35 36 35 34 33 33 33 32 32 31 31 32
7 9 10 13 15 17 17 15 15 18 19 18 18 18 17 15 12 9 10 15 19 19 19 21 22 25 26 28 30 32 33 35 35 35 35 35 35 35 35 35 35 35 35 35 37 38 38 38 37 35 34 35 36 36 37 37 38 38 37 36 36 37 37 38 36 36 39 41 38 34 33 33 34 34 34 34 33 31 30 30 29 29 29 29 28 29
8 8 10 13 14 15 17 16 14 17 20 20 18 18 16 13 13 15 19 22 22 22 24 26 28 31 33 34 36 37 37 37 37 37 37 36 36 36 36 36 36 36 35 35 35 37 37 37 36 35 34 34 34 35 35 36 36 37 36 35 35 35 35 36 34 34 37 39 36 33 33 33 33 32 31 30 29 27 26 25 25 26 27 27 28 29
10 8 10 13 13 12 13 11 8 11 15 15 14 15 15 15 17 21 23 24 26 29 31 33 36 38 38 38 39 38 37 37 35 35 35 35 35 35 35 35 36 35 35 34 34 35 35 35 35 34 33 33 33 34 34 34 34 34 34 33 34 34 34 35 33 33 36 37 35 34 34 33 31 30 29 28 27 25 24 24 25 26 28 29 30 32
14 14 14 14 13 11 11 10 9 13 15 14 14 16 18 21 24 27 28 31 33 34 35 36 37 38 38 38 38 37 36 35 34 34 33 33 33 33 33 34 34 35 35 34 34 33 33 33 33 33 33 33 32 33 33 33 32 31 31 32 32 33 33 33 32 32 35 36 36 35 35 32 30 29 29 29 27 26 26 26 28 29 30 31 33 34
14 14 15 15 15 16 18 19 20 22 22 21 23 24 26 28 30 31 32 34 34 34 35 35 36 36 37 37 37 37 36 35 35 33 32 32 32 32 32 32 33 33 34 34 33 32 31 31 31 32 32 32 32 31 32 32 31 30 29 30 30 30 31 31 30 31 33 34 35 36 34 31 29 30 30 30 29 28 28 29 31 31 32 33 33 33
17 18 19 20 21 23 24 25 25 25 25 25 26 27 28 30 30 31 32 33 33 34 34 34 34 35 36 37 38 37 36 36 35 33 32 32 31 31 31 31 31 33 33 33 32 31 30 30 30 30 30 30 30 30 30 30 30 28 27 28 27 27 27 27 28 30 32 34 36 36 33 31 31 31 32 32 31 30 31 32 33 33 33 33 33 33
22 21 22 24 24 24 24 23 23 24 25 26 28 29 29 30 30 31 31 32 32 32 33 33 34 35 36 37 38 37 36 35 34 33 32 31 30 30 30 30 31 32 32 31 30 29 29 29 29 28 28 28 28 29 29 28 28 27 26 25 25 24 24 25 27 29 31 34 36 35 33 32 32 32 33 33 33 33 33 34 35 35 34 34 34 33
21 21 22 23 24 25 27 27 27 28 29 28 28 28 28 28 30 30 31 31 31 32 33 33 33 33 33 34 35 35 34 33 33 33 32 30 30 29 29 29 30 31 30 30 29 28 28 28 27 27 27 28 27 27 27 27 26 25 25 24 22 22 22 24 26 29 31 34 36 34 33 33 34 33 34 35 35 35 35 35 35 35 35 34 33 32
24 25 25 26 28 30 30 28 28 28 28 26 26 28 29 30 30 30 30 31 31 31 31 31 30 30 30 30 30 31 31 30 31 31 30 29 29 29 28 29 29 28 28 27 27 27 27 27 26 26 26 26 26 26 25 24 24 23 23 22 21 21 21 23 26 29 32 34 35 34 33 34 34 34 35 36 36 36 37 37 36 36 35 34 33 33
27 27 26 27 30 30 27 24 25 27 28 28 28 30 30 30 30 30 29 29 29 29 29 29 28 27 27 27 28 28 28 27 28 28 28 28 28 28 27 27 26 25 25 25 25 26 26 26 25 24 24 25 25 24 24 23 22 22 22 20 19 19 21 23 25 28 32 34 35 34 34 35 35 35 36 36 37 37 37 37 37 37 36 35 35 34
24 23 23 25 27 28 26 25 26 28 29 30 30 31 31 30 29 28 28 27 27 27 28 27 26 26 25 26 27 27 26 25 24 25 25 25 25 25 25 24 23 22 23 24 24 24 25 25 24 22 22 22 23 22 22 21 20 20 20 18 17 18 20 22 24 28 32 35 35 35 35 35 36 37 37 37 37 37 38 38 38 37 37 37 37 37
Wind_Direction
221 221 222 225 228 230 230 229 230 232 233 233 233 234 235 236 237 236 231 226 224 229 231 231 234 233 229 231 232 236 243 247 250 255 262 264 261 255 248 242 241 244 247 251 255 255 252 248 243 239 236 236 237 238 236 235 234 234 234 234 234 237 239 239 239 239 240 241 243 246 244 240 239 239 237 236 238 240 240 237 235 237 239 239 239 238
220 223 228 233 236 235 231 228 229 230 231 230 225 222 223 224 226 224 217 215 216 224 229 230 236 237 234 235 237 240 246 253 260 266 269 267 264 261 259 256 254 251 247 249 255 257 255 250 245 241 237 235 235 237 238 237 236 235 235 236 236 235 237 239 241 242 242 243 245 248 249 245 242 241 239 236 235 236 241 241 235 235 239 240 241 239
220 227 231 232 231 228 228 227 226 227 229 229 223 220 222 220 220 221 219 219 223 228 231 234 242 248 248 246 247 250 254 258 264 267 269 269 270 272 274 272 268 264 259 251 246 246 247 247 245 242 237 234 233 233 235 237 237 237 236 237 238 239 238 238 239 242 244 245 246 246 247 247 246 247 246 242 239 237 241 245 238 233 238 244 244 241
229 235 231 228 227 225 226 224 218 219 222 223 224 225 227 225 227 232 234 236 236 237 240 246 255 259 258 256 256 257 261 264 265 267 268 270 272 271 269 268 267 264 259 245 232 232 236 237 238 240 238 234 232 233 234 236 237 238 239 238 239 240 241 240 239 239 241 244 247 247 247 248 248 249 250 249 246 242 244 248 243 238 242 249 248 243
237 238 222 215 211 206 208 207 205 207 209 217 225 229 233 232 236 245 249 248 243 245 251 258 270 271 267 265 262 260 263 264 262 261 261 258 256 257 258 261 266 265 257 246 234 228 230 233 235 237 239 239 236 234 234 236 238 238 239 240 240 240 241 241 241 240 239 240 243 247 250 252 251 251 251 251 250 248 248 251 250 249 250 253 251 245
218 215 204 199 195 190 190 193 197 203 211 223 230 233 239 244 246 250 248 245 242 246 254 259 274 281 272 267 266 257 252 252 247 243 240 240 250 262 269 270 268 264 255 244 237 232 231 233 237 240 240 241 240 238 237 236 238 239 239 240 241 241 241 241 241 242 241 239 239 241 246 251 255 255 254 253 252 252 253 254 255 254 254 255 255 250
194 190 190 192 193 193 198 208 213 217 225 232 233 235 246 254 255 254 245 238 237 244 255 250 242 264 274 266 250 228 233 246 247 244 247 258 273 275 269 258 246 236 227 225 228 230 229 227 230 236 238 239 237 235 234 233 234 236 238 239 240 241 241 240 240 241 241 240 239 239 241 244 249 253 256 256 255 254 253 254 255 256 256 257 259 257
193 190 193 196 202 206 213 220 224 228 236 243 244 248 259 264 264 260 250 242 242 248 256 248 239 258 275 268 251 239 245 249 244 248 266 273 267 247 224 214 210 205 203 204 210 216 218 219 221 225 230 232 232 230 229 228 228 229 231 234 236 237 238 238 238 239 239 240 240 240 240 241 244 247 250 252 254 256 255 254 255 257 258 259 261 261
197 200 203 205 214 221 222 224 229 237 250 261 264 265 267 269 264 253 247 242 241 246 251 243 233 250 275 264 253 236 225 222 231 254 269 248 228 214 207 210 212 209 206 203 205 211 213 214 214 217 223 226 228 229 228 228 227 227 228 229 232 234 236 237 237 237 238 239 240 241 241 241 243 244 245 246 248 252 255 256 257 258 260 262 264 264
207 208 212 221 229 233 235 241 250 255 264 268 269 267 263 261 248 236 233 233 231 233 247 240 225 229 268 258 242 227 218 231 248 238 222 219 211 206 211 221 225 223 216 209 209 213 214 214 215 216 220 223 226 228 229 229 229 229 230 230 231 233 235 237 237 237 238 239 240 241 242 243 243 244 245 245 245 246 250 254 257 258 260 262 266 266
230 232 237 243 246 249 252 256 257 260 262 257 253 246 235 227 221 217 217 223 220 242 248 242 228 225 254 271 245 230 216 188 162 180 206 223 217 215 222 228 233 232 223 215 214 217 218 219 220 221 222 223 225 228 230 231 231 232 233 233 234 234 234 237 239 240 240 241 242 242 243 245 245 245 245 246 246 246 246 247 250 254 256 259 262 263
247 248 250 252 255 256 255 254 253 252 245 238 236 223 209 204 209 215 223 217 196 252 250 248 239 228 226 242 218 181 202 216 218 223 219 218 219 221 225 227 230 228 220 217 219 222 222 222 223 225 226 228 229 230 231 232 233 234 235 236 238 239 238 237 238 240 242 243 244 245 245 246 247 247 247 247 247 247 247 246 247 248 251 253 256 259
255 255 254 254 254 247 242 239 237 238 230 228 226 208 194 182 199 219 239 217 221 242 245 243 231 217 229 246 244 238 253 256 248 238 225 220 225 228 231 233 230 224 217 218 223 226 228 227 227 228 231 235 237 236 235 235 236 236 237 239 241 243 244 243 242 241 242 244 246 247 247 248 248 248 248 248 248 248 248 248 248 247 248 250 252 253
266 264 259 255 250 242 238 234 231 231 224 223 220 204 189 156 115 219 232 264 257 241 235 222 203 199 232 248 253 252 256 254 245 239 230 225 228 232 236 233 225 218 214 214 218 224 231 233 233 235 238 243 245 242 239 239 240 241 242 243 244 246 247 247 248 246 245 245 246 248 249 249 250 249 250 250 250 250 250 249 249 248 248 248 250 250
258 264 259 250 245 242 237 232 232 233 228 225 221 212 205 200 194 203 207 202 234 232 218 198 190 218 219 219 238 245 248 245 238 232 225 223 225 229 231 227 219 215 214 215 216 221 228 234 239 243 247 251 249 245 241 241 243 244 246 247 248 249 249 249 250 250 250 249 247 248 249 250 251 251 251 251 251 251 251 251 250 250 249 248 248 249
241 251 251 237 230 230 229 224 222 224 226 224 219 215 216 217 219 224 210 202 196 68 181 185 196 231 200 195 214 226 232 227 220 218 217 219 221 223 226 225 221 218 219 221 222 223 227 232 240 247 253 255 250 245 245 248 252 255 258 259 258 257 256 254 253 251 251 252 251 250 249 250 251 252 252 251 251 251 251 252 252 252 251 251 250 249
239 245 236 223 219 220 221 219 216 215 218 216 211 214 221 224 227 234 239 211 184 313 226 194 191 177 172 192 220 213 217 209 197 202 204 205 212 217 221 222 221 222 224 226 227 228 229 231 236 243 249 252 248 247 253 260 264 265 265 266 265 264 262 259 257 255 253 252 253 253 252 251 251 251 253 253 252 251 251 251 252 252 252 253 253 252
250 254 244 226 218 219 219 218 217 216 218 214 208 214 221 225 226 222 223 209 171 245 241 208 200 184 171 185 215 212 217 210 198 198 195 196 202 205 209 213 216 218 219 221 224 226 229 230 232 236 241 245 249 254 260 263 264 265 264 263 263 263 263 261 259 257 256 254 253 254 254 253 252 252 252 253 253 253 252 252 252 252 252 253 253 253
253 262 257 236 221 221 220 217 220 218 217 219 214 210 210 214 219 207 200 202 189 215 255 213 208 204 198 200 203 207 216 215 209 209 206 206 204 202 205 207 209 213 214 216 221 224 228 232 234 237 240 245 250 254 258 259 259 260 260 261 261 262 263 263 261 259 258 258 256 255 255 255 254 253 253 253 253 254 254 254 253 253 252 252 252 253
248 257 260 237 219 218 215 213 223 222 217 220 220 218 216 218 221 210 207 212 195 214 249 216 203 206 210 213 211 211 217 216 213 213 215 218 218 213 212 212 214 217 219 221 223 226 231 236 240 243 244 245 246 248 250 251 254 254 255 256 258 261 263 263 262 261 259 259 258 258 258 258 257 256 255 255 254 255 255 255 255 254 253 252 251 251
248 244 248 242 222 221 223 219 225 226 220 221 221 222 224 222 224 227 226 227 215 194 229 229 230 182 196 210 219 219 220 219 217 215 212 217 222 221 217 218 220 222 224 227 228 231 234 237 241 243 242 241 241 241 242 243 245 247 249 251 253 256 259 261 262 261 260 259 258 258 259 261 261 259 257 256 256 256 256 256 256 256 255 254 252 251
252 245 247 251 240 231 232 226 224 226 226 228 228 229 231 225 220 222 233 233 228 222 229 240 243 168 183 204 216 220 222 221 220 219 212 210 217 222 222 219 220 223 226 229 230 231 232 232 235 237 238 238 238 238 238 237 238 240 243 247 250 252 254 257 260 262 263 263 262 261 261 263 265 265 262 259 257 257 257 256 256 256 256 255 254 252
259 259 260 261 255 246 241 231 224 225 226 230 235 238 241 237 227 214 221 238 235 233 243 260 267 193 193 209 215 217 220 219 220 222 217 211 212 218 223 223 221 224 226 228 231 231 231 231 232 234 236 238 239 239 238 237 237 237 239 243 246 249 251 253 256 260 263 266 268 269 267 267 269 270 268 264 260 258 257 257 257 257 256 255 254 252
264 261 259 263 264 258 253 247 244 247 249 247 248 249 248 244 240 237 241 262 269 248 243 255 245 186 185 205 218 219 220 219 220 223 222 219 217 220 227 230 230 232 234 236 237 236 236 238 237 237 238 239 241 241 240 240 239 239 240 241 243 245 247 250 252 256 261 266 270 273 274 274 273 273 273 269 264 260 258 257 257 256 256 255 254 253
266 260 252 261 272 270 262 259 254 250 252 252 246 243 242 241 244 247 247 251 260 254 247 242 244 187 182 199 213 216 221 224 223 227 231 233 235 235 239 244 247 250 251 249 248 246 246 246 245 245 244 243 243 243 243 243 242 241 241 241 243 244 246 248 249 253 259 264 267 271 275 278 277 276 274 271 268 263 259 257 256 256 256 254 253 253
265 263 257 251 239 231 241 250 246 231 236 245 238 229 229 231 237 246 254 254 231 240 242 230 228 194 188 202 218 222 227 232 232 236 243 250 257 258 259 262 262 262 264 264 261 257 256 256 257 257 256 254 251 249 248 247 245 244 243 243 244 244 245 247 249 251 255 259 263 267 272 276 277 275 274 272 269 266 262 259 256 255 254 253 252 252
269 263 262 260 252 251 257 262 269 265 258 259 261 258 255 252 254 257 260 256 246 257 258 245 242 237 214 222 247 246 244 253 256 255 259 264 270 273 274 274 272 272 274 274 272 270 268 267 267 268 268 266 262 258 256 254 251 249 248 246 246 245 245 246 247 249 251 254 259 263 268 272 273 273 272 271 269 266 264 261 257 255 253 251 250 250
266 261 260 261 260 263 269 273 273 269 265 264 264 264 265 270 273 269 263 259 258 266 266 254 255 263 257 259 266 262 265 274 275 273 273 275 279 283 284 284 282 280 280 280 280 278 277 275 274 274 274 273 271 269 265 262 260 258 256 253 251 250 247 245 246 247 248 250 254 258 262 265 268 269 269 268 268 266 264 261 258 255 253 251 249 248
261 263 263 265 266 267 269 271 270 266 265 265 264 264 263 265 270 269 268 268 265 263 264 264 269 274 274 274 276 274 276 279 279 280 282 284 287 289 291 292 290 287 284 283 283 282 281 280 279 278 278 277 277 275 272 269 268 267 266 263 260 258 256 252 250 249 249 250 252 255 257 259 261 265 266 265 265 265 265 263 259 255 253 250 249 248
262 266 269 266 264 264 262 261 262 260 261 264 266 269 269 267 267 268 271 273 272 270 272 274 276 276 276 278 280 280 281 281 282 285 286 287 290 292 293 293 292 291 288 285 285 284 284 283 282 281 280 280 280 279 277 275 272 271 271 269 267 265 263 261 259 257 253 252 252 253 254 256 258 261 264 264 264 264 264 264 261 255 252 249 247 245
258 264 269 264 261 264 260 256 258 260 263 265 265 266 267 266 266 267 269 272 273 272 274 275 274 275 276 277 279 281 283 284 286 287 288 288 289 291 292 292 291 291 289 287 286 285 284 284 284 283 282 282 282 281 281 280 278 276 275 274 272 270 268 267 266 265 261 256 254 252 251 253 256 260 263 265 265 265 264 263 261 256 251 247 244 241
262 265 269 272 274 274 270 267 268 269 267 263 260 260 261 262 263 265 268 271 270 271 272 272 271 272 274 276 279 281 283 283 285 286 287 288 289 290 291 292 292 291 290 289 287 285 284 284 283 282 282 282 282 283 283 282 282 281 279 278 277 275 273 272 270 270 267 262 258 254 250 250 253 258 262 264 266 267 265 262 259 255 249 245 241 240
266 266 269 272 274 274 274 274 275 275 271 261 260 264 267 265 264 265 265 266 265 266 267 268 268 272 275 276 278 280 281 282 284 286 287 288 289 290 291 292 293 293 292 291 289 287 286 285 284 283 282 281 281 282 282 282 282 282 280 279 278 277 276 275 273 272 270 267 262 258 252 249 251 254 257 259 262 264 263 260 256 251 246 242 239 237
265 265 266 265 264 267 271 274 274 269 261 262 269 275 277 271 266 262 261 262 262 261 263 266 270 273 275 275 277 278 280 281 283 286 288 289 291 291 291 291 292 293 293 293 292 290 288 286 285 284 283 282 281 280 280 281 281 281 280 279 277 275 274 275 274 272 270 269 266 261 255 249 249 252 254 256 257 258 258 256 253 249 243 239 237 236
261 261 260 258 256 260 265 267 272 266 259 266 275 277 272 268 265 262 262 262 260 260 262 264 268 271 273 275 277 279 280 282 284 285 286 288 289 289 289 290 290 291 292 292 292 291 290 287 285 284 282 281 280 278 278 278 278 278 279 278 277 274 271 270 272 271 268 266 266 264 258 250 247 250 253 255 255 255 254 253 250 247 241 237 236 236
257 255 255 254 252 256 252 227 229 256 271 267 262 252 252 263 271 269 265 262 260 261 263 264 267 270 273 276 279 281 283 284 285 285 286 286 286 286 286 287 288 289 289 290 290 290 289 288 286 284 282 280 279 277 275 275 274 274 275 275 275 274 270 268 268 267 264 261 262 263 259 250 245 247 251 253 254 253 252 249 247 245 240 236 235 236
257 250 247 245 245 246 234 225 240 261 275 268 257 257 263 270 274 272 268 267 266 264 265 266 268 270 272 274 278 281 283 284 284 285 286 286 287 287 287 286 286 286 286 286 287 287 287 286 285 283 282 280 278 276 273 272 271 270 271 272 272 271 269 265 263 261 259 256 257 260 258 251 245 245 248 250 250 249 247 244 242 241 238 236 236 235
254 249 244 240 241 244 242 243 252 260 269 272 269 269 271 273 276 276 274 274 273 272 272 272 272 272 272 273 274 277 280 282 283 285 287 288 289 290 290 289 288 286 285 284 283 283 284 284 283 281 279 279 278 276 272 269 266 265 265 266 267 267 264 260 257 256 254 253 253 255 255 250 246 245 245 245 244 242 240 239 239 238 236 235 235 233
250 248 245 241 245 249 244 236 222 236 257 274 278 277 278 277 279 283 283 280 278 276 275 274 273 273 273 274 274 276 280 281 282 285 288 289 290 291 291 292 291 289 287 285 283 282 282 282 282 279 277 276 276 274 270 266 263 261 260 259 261 261 258 254 252 251 250 248 248 249 249 246 247 247 244 243 240 236 234 235 238 239 235 232 232 231
254 248 241 238 243 250 249 247 251 256 265 275 278 277 280 280 278 277 277 280 280 278 274 274 275 274 274 276 279 280 282 283 283 285 286 287 288 290 291 292 293 292 289 286 284 282 281 281 281 280 276 274 273 272 269 264 260 258 258 258 258 258 255 252 250 248 244 242 241 241 241 241 245 245 242 240 236 231 229 231 234 237 235 230 230 229
260 253 244 241 246 251 251 250 258 265 269 273 275 276 278 275 263 246 256 277 284 284 281 279 278 278 279 281 282 283 285 286 286 285 286 286 287 287 288 290 292 294 293 288 284 282 280 279 279 279 277 274 272 272 269 263 258 257 259 260 259 256 253 250 249 246 240 235 232 232 234 238 242 240 236 236 233 228 227 228 231 235 235 231 229 227
263 256 248 245 249 255 255 255 264 271 271 270 271 272 272 260 247 257 275 285 286 285 284 284 284 284 285 286 286 286 286 286 286 285 285 284 284 284 284 286 289 294 295 290 285 282 281 278 276 276 277 275 273 271 268 262 257 256 259 259 257 253 249 247 247 245 238 232 228 227 229 234 238 235 231 232 229 224 223 225 227 231 232 229 224 220
263 258 253 252 254 257 254 252 262 272 271 272 273 272 268 263 266 278 285 286 285 286 287 287 287 287 288 287 287 287 286 285 285 285 284 284 283 282 281 283 287 292 294 291 286 283 281 279 275 274 275 275 272 270 267 261 256 255 256 254 252 250 246 245 245 243 237 234 231 227 225 227 230 230 229 228 224 219 216 217 219 221 223 222 218 214
260 254 254 257 258 254 245 240 254 269 276 280 280 278 279 280 283 287 287 286 286 287 287 287 287 287 287 287 286 285 285 285 285 285 285 284 282 281 281 282 286 291 294 292 287 283 281 278 274 272 274 274 273 270 266 261 256 253 253 251 249 247 245 244 244 242 238 236 233 226 219 218 220 224 226 225 220 214 211 210 212 214 215 215 214 212
261 259 262 264 262 260 259 260 265 271 276 279 281 282 284 285 286 287 287 286 286 286 286 287 287 286 286 285 285 284 284 284 285 286 286 283 281 281 281 282 286 290 292 291 287 284 282 278 273 271 273 275 274 270 265 261 257 255 255 254 250 246 244 243 242 240 237 235 229 221 213 211 214 219 223 221 217 212 208 207 209 210 210 210 210 210
269 269 271 272 272 271 270 269 270 272 274 277 280 282 283 284 285 285 285 285 286 287 288 288 287 286 285 284 283 282 282 283 284 285 286 284 282 282 281 283 286 290 290 289 286 285 282 278 273 272 274 276 275 271 265 261 257 257 259 258 254 248 244 242 239 235 232 229 223 215 209 209 212 216 219 217 213 209 207 207 208 209 209 208 207 207
273 272 271 272 273 274 273 275 278 280 280 281 283 283 284 284 284 284 285 286 288 289 289 289 288 287 286 284 283 281 280 281 282 284 285 285 283 282 282 283 286 288 288 287 286 285 283 278 274 273 274 276 276 271 266 262 259 261 264 263 256 249 243 240 235 228 223 221 216 210 207 209 211 214 215 214 210 206 206 206 207 207 207 207 206 205
275 274 272 272 273 274 277 282 286 286 285 285 284 284 284 284 285 286 287 288 289 289 290 290 289 288 286 285 283 281 280 280 281 283 285 285 283 282 282 283 285 286 286 285 286 286 283 279 275 273 274 277 277 272 266 262 261 264 267 264 257 249 242 237 230 220 214 213 211 207 206 209 211 213 214 212 209 206 206 205 205 205 205 205 204 204
275 275 277 279 279 279 280 285 287 286 286 285 285 285 285 286 287 289 289 289 290 291 292 292 291 289 288 286 284 282 281 281 282 283 283 283 283 282 282 283 284 284 284 285 287 286 283 279 276 274 274 276 277 272 265 261 261 263 265 263 256 247 240 233 223 213 209 209 207 203 205 209 211 212 212 211 209 208 207 207 205 205 204 204 204 204
278 278 281 281 280 281 283 286 286 285 285 286 286 286 287 288 289 290 289 290 292 293 294 294 294 293 291 289 286 284 282 282 282 282 282 282 281 281 282 283 283 283 285 287 287 286 283 280 277 275 275 277 276 270 263 259 259 261 262 261 254 246 237 228 218 209 205 205 204 202 204 209 211 211 210 210 209 209 209 208 207 205 204 205 206 206
281 280 280 279 279 282 286 286 283 283 285 287 287 288 289 290 292 291 290 291 292 294 295 296 295 294 293 291 290 287 286 286 284 282 281 281 280 280 281 282 282 284 286 287 287 286 284 281 279 277 276 277 274 267 259 255 256 258 261 260 256 246 234 224 215 207 204 203 202 202 203 207 209 210 209 209 210 210 210 209 209 208 207 208 209 210
Height
3032 3032 3031 3031 3033 3035 3037 3038 3040 3040 3041 3042 3043 3043 3044 3044 3044 3045 3046 3047 3047 3047 3047 3048 3048 3050 3051 3051 3053 3054 3053 3053 3055 3056 3058 3059 3061 3061 3062 3062 3063 3064 3065 3065 3065 3067 3068 3068 3069 3069 3070 3070 3070 3071 3072 3073 3075 3076 3077 3078 3080 3081 3082 3083 3084 3084 3086 3087 3089 3090 3092 3093 3094 3096 3098 3099 3101 3102 3102 3103 3105 3107 3108 3110 3111 3112
3030 3029 3029 3032 3034 3035 3036 3037 3038 3038 3039 3040 3041 3041 3042 3042 3043 3043 3044 3045 3045 3045 3045 3046 3046 3046 3048 3049 3050 3051 3050 3050 3052 3054 3055 3056 3057 3058 3059 3060 3061 3062 3063 3063 3064 3064 3065 3065 3066 3066 3067 3067 3067 3068 3068 3069 3070 3072 3073 3074 3076 3077 3078 3079 3080 3081 3082 3084 3085 3087 3088 3089 3091 3092 3094 3095 3097 3098 3099 3100 3102 3103 3104 3106 3107 3108
3027 3026 3029 3032 3032 3033 3033 3034 3035 3036 3037 3038 3039 3040 3040 3041 3042 3042 3042 3043 3044 3043 3043 3044 3043 3042 3045 3046 3046 3047 3047 3048 3050 3051 3052 3052 3053 3054 3055 3056 3057 3059 3060 3061 3062 3062 3062 3062 3062 3062 3063 3064 3064 3064 3064 3065 3066 3067 3069 3070 3072 3073 3074 3075 3077 3078 3079 3080 3081 3082 3083 3085 3086 3088 3090 3091 3092 3094 3095 3097 3099 3100 3101 3102 3103 3104
3025 3025 3028 3029 3029 3030 3030 3031 3033 3033 3035 3036 3036 3038 3038 3039 3040 3040 3041 3042 3042 3042 3041 3042 3040 3039 3041 3041 3041 3043 3043 3045 3047 3047 3048 3049 3050 3051 3052 3053 3054 3056 3057 3058 3059 3059 3059 3058 3058 3059 3059 3060 3061 3061 3061 3062 3063 3063 3065 3066 3068 3069 3070 3072 3073 3074 3075 3076 3077 3078 3079 3080 3082 3084 3086 3087 3089 3090 3092 3093 3095 3097 3097 3097 3098 3099
3024 3024 3025 3026 3027 3028 3028 3029 3030 3031 3033 3034 3034 3036 3037 3038 3039 3038 3039 3040 3040 3040 3039 3040 3038 3033 3034 3036 3037 3040 3040 3041 3043 3044 3045 3047 3048 3049 3050 3051 3052 3053 3054 3055 3056 3056 3055 3055 3055 3055 3056 3056 3057 3058 3059 3059 3059 3060 3061 3062 3064 3065 3067 3068 3069 3070 3071 3072 3073 3074 3075 3076 3077 3079 3081 3083 3085 3087 3088 3089 3091 3093 3093 3093 3093 3094
3022 3023 3023 3024 3025 3026 3027 3028 3029 3030 3031 3032 3033 3034 3035 3036 3037 3037 3037 3038 3038 3038 3037 3039 3037 3029 3028 3032 3033 3035 3037 3037 3040 3041 3043 3045 3046 3047 3048 3049 3049 3050 3051 3051 3052 3052 3052 3052 3052 3052 3052 3053 3054 3055 3056 3057 3057 3057 3058 3059 3060 3061 3063 3064 3065 3066 3067 3068 3069 3070 3071 3072 3073 3074 3077 3079 3081 3082 3083 3085 3086 3087 3088 3089 3089 3091
3020 3021 3021 3022 3023 3024 3025 3026 3028 3029 3029 3030 3030 3032 3033 3034 3034 3035 3035 3036 3036 3035 3035 3037 3037 3029 3025 3029 3031 3033 3034 3036 3037 3038 3040 3043 3044 3044 3045 3045 3045 3046 3046 3047 3048 3048 3047 3048 3048 3048 3048 3049 3050 3051 3052 3052 3053 3054 3054 3055 3056 3057 3058 3059 3060 3062 3063 3064 3065 3066 3067 3069 3070 3071 3072 3074 3076 3077 3078 3079 3080 3081 3083 3083 3085 3087
3018 3019 3020 3021 3022 3023 3023 3025 3026 3027 3027 3027 3028 3030 3031 3031 3032 3033 3033 3034 3034 3033 3033 3034 3035 3030 3024 3025 3029 3030 3031 3033 3034 3037 3038 3039 3040 3040 3039 3039 3040 3041 3041 3041 3041 3041 3041 3042 3042 3042 3042 3043 3043 3044 3045 3046 3047 3048 3049 3049 3050 3051 3052 3053 3054 3056 3057 3058 3059 3061 3063 3064 3065 3067 3068 3070 3071 3072 3074 3075 3076 3077 3078 3079 3080 3082
3017 3018 3019 3019 3020 3021 3022 3024 3025 3025 3025 3025 3026 3028 3028 3029 3030 3031 3031 3032 3032 3032 3031 3030 3032 3031 3022 3020 3025 3027 3028 3030 3032 3035 3035 3034 3034 3034 3034 3034 3035 3035 3035 3036 3035 3035 3035 3036 3036 3036 3036 3036 3037 3038 3039 3040 3042 3043 3043 3044 3045 3046 3047 3048 3049 3050 3051 3052 3054 3055 3057 3059 3061 3062 3064 3066 3068 3069 3070 3071 3072 3073 3074 3075 3076 3077
3015 3016 3017 3017 3018 3019 3021 3022 3022 3022 3023 3023 3024 3025 3026 3028 3028 3029 3030 3030 3031 3030 3026 3025 3029 3029 3021 3018 3022 3025 3026 3028 3030 3031 3030 3030 3030 3030 3030 3030 3030 3030 3031 3031 3031 3030 3030 3030 3030 3031 3031 3031 3032 3034 3035 3036 3038 3039 3040 3042 3042 3043 3043 3044 3045 3046 3047 3048 3049 3051 3052 3054 3056 3057 3059 3061 3063 3065 3066 3067 3068 3070 3071 3072 3073 3074
3014 3014 3015 3015 3016 3017 3019 3019 3019 3020 3021 3021 3022 3023 3025 3027 3027 3028 3029 3029 3031 3027 3019 3021 3026 3027 3022 3017 3019 3023 3024 3026 3028 3027 3027 3027 3026 3025 3025 3025 3025 3026 3027 3027 3027 3027 3026 3026 3027 3027 3028 3029 3030 3031 3032 3033 3035 3036 3037 3039 3039 3040 3041 3042 3042 3043 3044 3045 3046 3047 3048 3049 3051 3053 3054 3056 3058 3060 3062 3064 3065 3066 3067 3068 3070 3071
3011 3011 3012 3012 3014 3015 3015 3016 3016 3017 3018 3018 3020 3022 3024 3026 3026 3028 3028 3029 3030 3022 3015 3018 3023 3025 3023 3017 3018 3021 3021 3023 3024 3023 3023 3023 3021 3021 3021 3021 3022 3023 3023 3024 3024 3024 3024 3024 3025 3025 3026 3027 3028 3028 3029 3030 3031 3033 3034 3035 3036 3037 3038 3039 3040 3040 3041 3042 3043 3044 3045 3046 3047 3048 3050 3051 3053 3055 3057 3059 3061 3062 3063 3064 3066 3067
3007 3008 3009 3009 3010 3012 3012 3013 3013 3014 3014 3016 3017 3020 3023 3025 3027 3027 3026 3027 3025 3017 3014 3017 3019 3021 3019 3014 3015 3017 3016 3016 3016 3016 3018 3018 3017 3017 3017 3018 3019 3019 3020 3021 3022 3022 3022 3023 3023 3024 3024 3025 3026 3027 3028 3028 3029 3030 3031 3032 3033 3033 3034 3035 3036 3037 3038 3039 3039 3040 3041 3042 3043 3044 3045 3047 3049 3051 3052 3054 3055 3057 3059 3060 3061 3063
3004 3004 3005 3006 3006 3007 3008 3009 3009 3009 3010 3011 3012 3015 3017 3021 3025 3025 3023 3023 3019 3013 3012 3015 3017 3018 3015 3011 3011 3010 3008 3008 3008 3009 3012 3012 3013 3013 3013 3015 3016 3016 3017 3018 3019 3019 3019 3020 3020 3021 3022 3022 3023 3024 3026 3026 3027 3028 3029 3029 3030 3030 3031 3031 3032 3033 3034 3035 3036 3036 3037 3038 3039 3040 3041 3043 3045 3046 3048 3049 3050 3052 3054 3055 3057 3058
3002 3000 3000 3001 3002 3002 3003 3004 3005 3006 3006 3006 3008 3010 3010 3011 3014 3015 3014 3014 3012 3009 3011 3014 3015 3012 3008 3007 3006 3004 3003 3002 3003 3004 3005 3007 3007 3008 3009 3010 3012 3013 3014 3015 3015 3016 3016 3017 3017 3018 3019 3019 3020 3021 3022 3023 3025 3026 3026 3027 3027 3028 3028 3028 3028 3029 3030 3031 3032 3033 3033 3034 3034 3036 3037 3039 3040 3042 3043 3045 3046 3047 3049 3050 3052 3053
2999 2997 2996 2997 2998 2998 2999 3000 3002 3003 3004 3005 3006 3007 3006 3004 3005 3006 3006 3007 3007 3008 3009 3009 3009 3005 3003 3004 3003 3002 3001 3000 3000 3000 3001 3002 3003 3004 3005 3006 3008 3009 3010 3011 3011 3012 3013 3014 3014 3015 3015 3016 3017 3018 3018 3019 3020 3021 3023 3024 3024 3025 3025 3025 3025 3025 3026 3027 3028 3029 3030 3030 3030 3031 3032 3034 3036 3037 3038 3040 3041 3042 3044 3045 3046 3048
2996 2994 2994 2995 2995 2995 2996 2997 2999 3000 3001 3002 3002 3002 3001 3002 3003 3004 3004 3004 3006 3007 3004 3002 3002 3001 3002 3003 3001 3000 2999 2998 2998 2998 2998 2999 2999 3000 3001 3002 3004 3005 3005 3006 3007 3007 3008 3009 3010 3011 3011 3012 3013 3014 3015 3015 3016 3016 3017 3018 3019 3020 3021 3021 3021 3022 3022 3023 3024 3025 3026 3026 3027 3027 3028 3029 3031 3032 3034 3035 3036 3037 3038 3040 3041 3043
2994 2992 2992 2993 2993 2994 2995 2995 2996 2997 2998 2998 2998 2998 2999 3001 3001 3002 3003 3003 3005 3005 2998 2995 2997 2997 2998 2999 2998 2998 2997 2996 2997 2996 2996 2996 2997 2997 2998 2999 3000 3000 3001 3002 3002 3003 3003 3004 3005 3006 3007 3008 3009 3010 3011 3011 3012 3012 3012 3013 3014 3015 3016 3016 3017 3018 3018 3019 3020 3020 3021 3022 3023 3024 3024 3025 3026 3028 3029 3030 3032 3033 3034 3035 3036 3037
2992 2991 2990 2990 2991 2992 2993 2994 2994 2994 2995 2995 2995 2996 2996 2997 2997 2999 3000 3000 3001 3000 2994 2991 2992 2993 2993 2994 2993 2993 2993 2993 2993 2994 2995 2995 2995 2995 2995 2995 2996 2996 2997 2998 2998 2999 2999 2999 3000 3001 3002 3004 3005 3006 3007 3007 3008 3008 3008 3008 3009 3009 3010 3011 3012 3013 3014 3015 3015 3016 3017 3018 3019 3019 3020 3021 3022 3023 3025 3026 3027 3028 3029 3031 3032 3033
2990 2990 2988 2987 2989 2990 2990 2991 2991 2991 2991 2992 2992 2993 2993 2993 2993 2994 2993 2993 2994 2994 2991 2989 2988 2988 2989 2989 2990 2990 2989 2988 2989 2990 2991 2992 2992 2992 2992 2992 2992 2993 2993 2994 2994 2994 2994 2995 2995 2996 2997 2998 3000 3001 3002 3003 3004 3004 3005 3005 3005 3005 3006 3006 3007 3008 3009 3010 3011 3012 3013 3013 3014 3015 3016 3017 3018 3019 3020 3021 3023 3024 3025 3026 3027 3028
2988 2989 2986 2985 2986 2987 2988 2988 2987 2987 2988 2989 2989 2990 2990 2990 2991 2991 2990 2989 2990 2990 2989 2987 2984 2983 2984 2985 2986 2986 2985 2985 2986 2986 2987 2988 2988 2988 2988 2988 2988 2989 2989 2989 2990 2990 2990 2991 2991 2992 2992 2993 2994 2995 2997 2998 2999 3000 3001 3001 3001 3001 3002 3002 3003 3003 3004 3005 3006 3007 3008 3009 3010 3011 3012 3013 3013 3014 3016 3017 3018 3019 3020 3022 3023 3024
2986 2986 2984 2983 2984 2985 2985 2985 2985 2985 2985 2986 2987 2987 2987 2987 2988 2989 2987 2986 2986 2986 2985 2984 2981 2979 2981 2982 2982 2982 2982 2982 2982 2982 2982 2983 2984 2984 2984 2985 2985 2985 2985 2985 2986 2986 2986 2987 2987 2987 2988 2989 2990 2991 2992 2993 2994 2995 2996 2997 2998 2998 2998 2999 2999 2999 3000 3001 3002 3003 3004 3004 3005 3006 3007 3008 3009 3010 3011 3012 3013 3015 3016 3017 3018 3019
2984 2984 2982 2981 2981 2983 2983 2983 2983 2983 2983 2984 2984 2984 2985 2985 2985 2986 2985 2984 2984 2983 2983 2982 2980 2979 2979 2979 2979 2979 2978 2978 2978 2978 2979 2979 2980 2981 2981 2981 2981 2982 2982 2982 2982 2982 2982 2983 2983 2984 2984 2984 2985 2986 2987 2988 2989 2990 2992 2993 2994 2994 2995 2995 2995 2995 2995 2996 2998 2999 2999 3000 3001 3001 3002 3003 3004 3005 3006 3007 3008 3010 3011 3012 3013 3015
2982 2981 2980 2978 2978 2979 2980 2981 2981 2981 2982 2982 2982 2982 2983 2982 2983 2984 2983 2983 2983 2981 2981 2982 2979 2976 2976 2976 2975 2975 2975 2975 2975 2975 2975 2976 2977 2977 2977 2978 2978 2978 2978 2978 2978 2978 2978 2979 2979 2980 2980 2981 2981 2982 2983 2984 2985 2986 2987 2988 2989 2990 2991 2991 2992 2992 2992 2992 2993 2994 2995 2996 2996 2997 2998 2999 3000 3001 3002 3003 3004 3005 3006 3007 3009 3010
2979 2979 2978 2977 2977 2977 2977 2978 2978 2978 2979 2979 2980 2980 2980 2980 2981 2981 2981 2983 2982 2979 2980 2979 2975 2973 2974 2972 2971 2971 2972 2972 2973 2972 2973 2973 2974 2975 2975 2974 2974 2974 2975 2975 2975 2975 2974 2975 2975 2975 2976 2977 2977 2978 2978 2979 2980 2981 2982 2983 2984 2985 2986 2987 2988 2988 2989 2989 2989 2989 2990 2991 2992 2993 2994 2994 2995 2996 2997 2998 2999 3000 3002 3003 3004 3005
2977 2977 2976 2976 2976 2974 2974 2976 2976 2976 2977 2977 2977 2978 2979 2980 2980 2979 2981 2982 2980 2977 2976 2975 2973 2973 2972 2970 2968 2968 2969 2969 2970 2970 2970 2970 2971 2972 2973 2972 2971 2970 2970 2970 2971 2971 2971 2971 2971 2972 2972 2973 2974 2974 2975 2975 2976 2977 2977 2978 2979 2980 2981 2982 2983 2984 2985 2985 2986 2986 2986 2987 2988 2989 2989 2990 2991 2991 2992 2993 2994 2996 2997 2998 3000 3001
2975 2974 2974 2974 2974 2973 2973 2975 2975 2975 2975 2975 2975 2976 2977 2978 2978 2979 2979 2978 2977 2976 2971 2970 2972 2972 2970 2969 2967 2967 2966 2965 2966 2966 2966 2967 2967 2968 2969 2969 2968 2967 2966 2966 2966 2967 2968 2968 2968 2968 2969 2969 2970 2971 2971 2971 2972 2973 2973 2974 2974 2975 2976 2978 2978 2979 2981 2982 2982 2983 2983 2983 2984 2984 2985 2986 2987 2987 2988 2989 2990 2991 2992 2994 2996 2997
2972 2971 2971 2972 2971 2971 2972 2972 2973 2973 2973 2973 2974 2974 2975 2975 2976 2976 2976 2974 2976 2975 2968 2967 2971 2969 2967 2967 2966 2965 2965 2963 2962 2962 2963 2963 2963 2963 2964 2965 2965 2965 2964 2963 2963 2963 2963 2964 2965 2965 2965 2966 2966 2967 2967 2968 2968 2968 2969 2970 2970 2971 2971 2973 2974 2975 2976 2977 2978 2979 2980 2980 2980 2981 2981 2982 2982 2983 2984 2984 2985 2986 2988 2989 2991 2993
2969 2968 2968 2969 2968 2969 2969 2969 2970 2970 2970 2971 2971 2971 2972 2973 2973 2972 2971 2971 2974 2971 2966 2967 2968 2965 2965 2965 2962 2963 2964 2962 2960 2959 2958 2959 2958 2958 2959 2960 2961 2961 2961 2960 2959 2959 2959 2959 2959 2960 2961 2961 2961 2962 2963 2963 2964 2965 2965 2965 2966 2966 2967 2968 2969 2970 2971 2972 2973 2974 2975 2976 2977 2977 2978 2978 2978 2979 2980 2980 2981 2982 2983 2985 2987 2989
2967 2965 2965 2966 2965 2965 2966 2967 2967 2967 2968 2968 2968 2968 2969 2970 2969 2968 2967 2968 2969 2966 2965 2966 2963 2962 2963 2961 2959 2961 2962 2959 2958 2956 2955 2955 2955 2955 2955 2955 2955 2956 2957 2956 2956 2955 2955 2955 2954 2954 2955 2956 2956 2957 2957 2958 2959 2960 2961 2961 2962 2962 2963 2964 2964 2965 2966 2968 2969 2969 2971 2972 2973 2973 2974 2974 2974 2975 2976 2976 2977 2978 2979 2981 2983 2985
2964 2963 2963 2963 2963 2962 2963 2964 2964 2965 2965 2965 2964 2965 2966 2966 2965 2965 2964 2965 2965 2962 2963 2963 2960 2958 2959 2958 2957 2958 2958 2957 2955 2953 2952 2951 2950 2950 2950 2950 2950 2951 2952 2952 2952 2951 2951 2951 2951 2950 2950 2950 2951 2951 2952 2953 2954 2955 2956 2957 2957 2958 2958 2959 2960 2961 2962 2963 2964 2965 2966 2967 2968 2969 2969 2970 2970 2971 2971 2972 2973 2974 2975 2977 2979 2981
2963 2962 2961 2962 2961 2959 2960 2962 2962 2962 2962 2961 2960 2961 2961 2961 2961 2961 2961 2961 2961 2959 2959 2958 2956 2955 2956 2956 2955 2955 2955 2954 2952 2951 2950 2949 2946 2945 2944 2944 2945 2946 2947 2948 2948 2948 2947 2947 2947 2947 2946 2945 2945 2946 2947 2947 2949 2950 2951 2952 2953 2953 2954 2954 2955 2957 2958 2958 2959 2960 2961 2962 2964 2965 2965 2966 2966 2966 2967 2968 2969 2970 2971 2973 2975 2977
2960 2960 2960 2961 2959 2956 2957 2958 2959 2960 2958 2955 2954 2956 2957 2957 2957 2957 2957 2957 2957 2956 2955 2953 2952 2953 2954 2953 2953 2952 2952 2951 2949 2948 2948 2947 2944 2942 2940 2939 2939 2939 2940 2942 2942 2943 2943 2943 2943 2942 2942 2941 2940 2940 2941 2942 2943 2944 2945 2947 2948 2949 2950 2950 2951 2952 2954 2954 2955 2955 2956 2957 2959 2960 2961 2962 2962 2962 2963 2964 2965 2966 2967 2969 2971 2973
2957 2957 2957 2958 2957 2954 2954 2956 2958 2956 2951 2948 2950 2952 2953 2953 2953 2953 2953 2953 2953 2953 2952 2950 2949 2950 2950 2949 2949 2949 2949 2948 2947 2945 2944 2943 2942 2939 2937 2936 2935 2934 2934 2934 2935 2937 2937 2938 2938 2937 2936 2936 2935 2935 2935 2936 2937 2938 2939 2941 2942 2944 2946 2946 2947 2948 2949 2950 2950 2951 2952 2952 2953 2955 2956 2957 2958 2958 2959 2960 2960 2961 2963 2965 2967 2969
2954 2954 2954 2955 2954 2953 2953 2956 2954 2948 2945 2946 2948 2949 2949 2949 2950 2950 2949 2949 2950 2949 2949 2948 2947 2947 2946 2946 2946 2945 2945 2945 2944 2943 2942 2941 2939 2937 2934 2933 2931 2930 2929 2928 2928 2929 2930 2931 2932 2932 2931 2931 2930 2930 2930 2930 2931 2932 2933 2934 2936 2938 2941 2942 2943 2944 2945 2946 2946 2947 2947 2948 2948 2950 2951 2952 2953 2954 2954 2955 2956 2957 2959 2960 2962 2964
2951 2951 2952 2952 2952 2951 2952 2952 2948 2943 2944 2946 2947 2947 2947 2947 2947 2947 2946 2946 2946 2946 2946 2946 2945 2944 2944 2943 2942 2941 2941 2940 2940 2940 2939 2938 2936 2935 2933 2931 2929 2928 2927 2925 2924 2923 2923 2923 2924 2924 2925 2925 2925 2925 2924 2925 2925 2926 2926 2927 2928 2931 2934 2936 2937 2939 2940 2941 2941 2942 2942 2943 2943 2944 2946 2947 2948 2949 2950 2951 2952 2953 2954 2956 2958 2959
2949 2949 2949 2950 2950 2949 2949 2948 2946 2944 2944 2944 2944 2945 2945 2944 2944 2944 2943 2942 2943 2943 2943 2942 2942 2942 2941 2940 2939 2938 2937 2936 2936 2936 2935 2934 2932 2931 2930 2928 2927 2926 2924 2923 2921 2920 2919 2918 2918 2918 2918 2919 2919 2919 2919 2919 2919 2919 2920 2920 2921 2923 2927 2930 2931 2933 2935 2936 2936 2937 2937 2938 2938 2939 2941 2943 2943 2944 2945 2946 2947 2949 2950 2951 2953 2954
2947 2947 2948 2948 2948 2947 2947 2946 2945 2943 2941 2941 2942 2943 2942 2942 2942 2942 2940 2939 2940 2940 2940 2939 2939 2938 2938 2937 2936 2935 2934 2932 2932 2932 2931 2930 2928 2926 2925 2924 2923 2922 2920 2919 2918 2917 2916 2915 2914 2914 2913 2913 2913 2912 2912 2913 2913 2913 2914 2914 2915 2917 2919 2922 2925 2927 2929 2930 2930 2931 2932 2933 2933 2934 2936 2938 2938 2939 2940 2942 2943 2944 2945 2946 2948 2949
2946 2946 2946 2947 2946 2946 2946 2945 2944 2941 2939 2939 2940 2940 2941 2941 2940 2940 2939 2936 2936 2937 2936 2936 2936 2935 2934 2934 2933 2932 2931 2929 2929 2929 2927 2926 2924 2923 2921 2920 2919 2917 2916 2914 2913 2912 2912 2911 2910 2909 2909 2908 2908 2907 2907 2907 2907 2908 2908 2909 2910 2911 2912 2915 2917 2919 2921 2923 2924 2925 2926 2928 2929 2929 2931 2933 2934 2934 2935 2937 2938 2940 2941 2942 2943 2944
2945 2945 2945 2945 2944 2944 2944 2943 2942 2939 2937 2938 2938 2939 2939 2938 2938 2939 2936 2932 2932 2934 2933 2933 2933 2932 2931 2931 2930 2929 2928 2926 2925 2925 2924 2922 2921 2919 2917 2915 2914 2913 2911 2909 2908 2906 2906 2906 2905 2905 2904 2903 2902 2902 2901 2901 2902 2902 2903 2904 2905 2906 2906 2908 2910 2911 2913 2915 2917 2919 2921 2923 2924 2925 2927 2928 2929 2929 2930 2932 2934 2935 2937 2938 2939 2940
2944 2944 2944 2943 2943 2943 2942 2941 2939 2937 2936 2936 2936 2936 2936 2936 2936 2935 2932 2930 2930 2931 2930 2930 2930 2928 2928 2927 2926 2925 2924 2922 2921 2920 2919 2918 2917 2915 2913 2911 2909 2908 2906 2904 2903 2901 2901 2901 2900 2900 2899 2898 2897 2897 2896 2896 2896 2897 2898 2898 2899 2900 2900 2902 2903 2904 2906 2908 2911 2913 2916 2918 2920 2921 2922 2924 2924 2924 2925 2927 2929 2931 2933 2934 2936 2938
2943 2942 2942 2941 2941 2940 2940 2939 2937 2934 2933 2933 2934 2933 2934 2934 2932 2930 2929 2928 2929 2928 2927 2927 2926 2924 2924 2923 2921 2920 2919 2917 2916 2915 2914 2913 2912 2910 2909 2907 2905 2903 2902 2900 2898 2896 2896 2895 2895 2894 2894 2893 2892 2891 2891 2890 2891 2892 2893 2893 2893 2894 2895 2896 2897 2898 2900 2902 2904 2907 2910 2912 2915 2916 2918 2919 2920 2921 2922 2924 2926 2928 2930 2932 2934 2936
2941 2941 2939 2938 2939 2938 2937 2937 2934 2931 2930 2931 2931 2931 2931 2930 2928 2928 2927 2927 2926 2924 2924 2923 2921 2920 2918 2917 2916 2914 2913 2912 2911 2910 2909 2908 2906 2905 2904 2902 2900 2899 2897 2895 2893 2892 2891 2890 2890 2889 2889 2888 2887 2886 2885 2885 2886 2887 2887 2887 2888 2888 2889 2890 2891 2893 2894 2896 2898 2901 2904 2907 2909 2912 2914 2916 2917 2918 2919 2921 2924 2925 2927 2929 2932 2934
2939 2938 2937 2936 2936 2935 2934 2933 2931 2928 2928 2929 2929 2928 2928 2927 2926 2925 2924 2923 2922 2921 2919 2918 2916 2915 2913 2911 2910 2909 2908 2907 2906 2905 2904 2903 2901 2900 2899 2898 2896 2894 2892 2890 2888 2887 2886 2885 2884 2884 2884 2883 2882 2881 2881 2880 2881 2882 2882 2882 2882 2883 2883 2884 2886 2887 2889 2891 2894 2896 2898 2901 2904 2908 2910 2912 2914 2915 2917 2920 2922 2924 2926 2928 2930 2933
2936 2935 2934 2934 2933 2932 2930 2929 2928 2927 2927 2927 2926 2926 2925 2924 2922 2921 2920 2918 2917 2916 2915 2914 2912 2910 2908 2906 2905 2904 2902 2901 2900 2900 2899 2897 2896 2895 2894 2893 2891 2889 2887 2885 2883 2882 2881 2880 2880 2879 2879 2878 2877 2877 2876 2876 2876 2877 2877 2877 2877 2878 2878 2879 2881 2882 2884 2887 2889 2892 2894 2896 2900 2903 2907 2909 2911 2913 2915 2918 2920 2922 2924 2926 2929 2931
2933 2933 2932 2931 2930 2929 2926 2925 2926 2925 2925 2924 2924 2922 2921 2920 2919 2917 2915 2914 2912 2911 2910 2909 2907 2905 2903 2901 2900 2898 2897 2896 2895 2894 2893 2892 2891 2890 2889 2888 2887 2885 2883 2881 2879 2878 2877 2876 2875 2875 2874 2874 2873 2872 2872 2872 2872 2872 2872 2872 2872 2873 2873 2874 2876 2877 2880 2883 2886 2888 2890 2893 2896 2900 2903 2906 2908 2911 2913 2916 2918 2920 2922 2924 2927 2929
2930 2930 2929 2927 2926 2925 2922 2922 2922 2922 2921 2921 2920 2918 2917 2916 2914 2913 2911 2910 2908 2907 2905 2904 2902 2900 2898 2896 2894 2893 2892 2891 2890 2889 2888 2888 2887 2886 2884 2883 2882 2880 2878 2876 2875 2873 2872 2871 2870 2870 2870 2869 2869 2868 2868 2868 2868 2868 2868 2868 2868 2868 2869 2870 2871 2873 2876 2879 2882 2885 2887 2890 2894 2897 2900 2903 2906 2908 2911 2913 2916 2918 2920 2922 2924 2926
2927 2926 2925 2924 2923 2921 2919 2918 2919 2918 2917 2916 2915 2914 2913 2912 2910 2908 2907 2906 2904 2903 2901 2899 2897 2895 2893 2891 2889 2888 2887 2887 2886 2884 2884 2883 2882 2881 2880 2879 2877 2876 2874 2872 2871 2869 2868 2867 2866 2866 2866 2865 2865 2865 2865 2865 2865 2865 2865 2865 2865 2865 2865 2866 2868 2869 2872 2876 2879 2882 2885 2888 2891 2894 2897 2900 2903 2906 2908 2911 2914 2916 2918 2920 2922 2924
2924 2923 2922 2920 2919 2917 2916 2916 2915 2913 2912 2912 2911 2909 2908 2907 2906 2904 2903 2901 2900 2898 2896 2894 2893 2891 2889 2887 2885 2884 2883 2883 2882 2880 2879 2878 2877 2876 2875 2874 2873 2871 2870 2868 2867 2865 2864 2863 2862 2862 2862 2862 2861 2861 2861 2861 2862 2862 2862 2862 2861 2861 2862 2863 2865 2866 2869 2873 2876 2879 2882 2885 2888 2891 2894 2897 2900 2903 2905 2908 2911 2913 2916 2918 2920 2922
2920 2919 2918 2917 2914 2912 2912 2913 2911 2909 2908 2907 2906 2905 2904 2903 2901 2900 2898 2897 2895 2894 2892 2890 2889 2887 2885 2883 2881 2880 2879 2879 2878 2876 2875 2874 2873 2872 2871 2870 2869 2868 2866 2865 2863 2862 2860 2859 2859 2859 2858 2858 2858 2858 2858 2858 2859 2859 2859 2859 2858 2859 2859 2860 2862 2864 2867 2871 2874 2877 2880 2883 2886 2889 2892 2895 2897 2900 2903 2905 2908 2910 2912 2915 2917 2919
2916 2915 2915 2913 2910 2909 2909 2909 2907 2905 2904 2903 2902 2900 2899 2898 2897 2895 2894 2892 2891 2889 2888 2886 2885 2883 2881 2879 2877 2876 2875 2875 2874 2872 2871 2870 2869 2868 2867 2866 2865 2864 2863 2862 2860 2859 2857 2856 2856 2855 2855 2855 2855 2855 2855 2855 2856 2856 2856 2856 2856 2856 2857 2858 2859 2861 2865 2868 2872 2875 2878 2881 2884 2887 2890 2892 2895 2898 2900 2903 2905 2907 2909 2911 2913 2915